Weather in Podolhi

Russia / Belgorod Oblast     50°58′11″N   36°53′52″E
temp.,
°C
wind,
m/s
gust,
m/s
humid.,
%
clouds,
%
prec.,
mm/h
press.,
hPa
HPBL,
m
14 april, wed
wed1400:00+10ssw348840 0.0 1021111
03:00+9sse248876 0.0 1021129
06:00+8ese119299 0.0 102010
09:00+12e2375100 0.0 1019312
12:00+16ene135836 0.2 10171183
15:00+18se5637100 0.2 10151948
18:00+17se5944100 0.0 1014938
21:00+12se355957 0.1 101583
15 april, thu
thu1500:00+11ese2265100 0.0 101432
03:00+10s357599 0.0 101497
06:00+8sw249533 0.0 1014105
09:00+11ssw4571100 0.0 1014562
12:00+14s465294 0.0 10141371
15:00+14s6652100 0.0 10131670
18:00+14sse455918 0.0 1013958
21:00+11se4776100 0.3 1014222
16 april, fri
fri1600:00+11se4782100 1.6 1013319
03:00+8sse37900 1.6 1014182
06:00+6sse36913 0.0 1015144
09:00+10sse46705 0.0 1016664
12:00+13sse575499 0.0 10161628
15:00+13sse4751100 0.1 10161857
18:00+11ssw2462100 0.0 1017459
21:00+10wsw117253 0.0 101732
17 april, sat
sat1700:00+8w2280100 0.0 101817
03:00+7e1184100 0.5 101842
06:00+6w2594100 8.8 1018227
09:00+6wsw4792100 19.7 1018391
12:00+6wsw5690100 3.0 1018719
15:00+7wsw4685100 3.1 1019849
18:00+8s3483100 0.1 1019599
21:00+7se3695100 1.0 1020241
18 april, sun
sun1800:00+7ese2494100 3.4 1020190
03:00+7se3695100 3.8 1021294
06:00+6se369270 0.1 1021193
09:00+9ene357412 0.1 1022511
12:00+12e345656 0.5 10211426
15:00+13ene4454100 1.7 10211419
18:00+11ne5669100 1.1 1021885
21:00+8ne51088100 2.0 1022416